Regional Weather Roundup
Issued by NWS

Home | Current Version | Previous Version | Graphics & Text | Print | Product List | Glossary On
Versions: 1 2 3 4 5 6 7 8 9 10 11 12 13 14 15 16 17 18 19 20 21 22 23 24 25 26 27 28 29 30 31 32 33 34 35 36 37 38 39 40 41 42 43 44 45 46 47 48 49 50
000
ASUS43 KMPX 160310
RWRMN
WEATHER ROUNDUP FOR MINNESOTA
NATIONAL WEATHER SERVICE TWIN CITIES/CHANHASSEN MN
1000 PM CDT TUE APR 15 2014


NOTE: "FAIR" INDICATES FEW OR NO CLOUDS BELOW 12,000 FEET WITH NO
SIGNIFICANT WEATHER AND/OR OBSTRUCTIONS TO VISIBILITY. N/A MEANS
CURRENT SKY AND/OR WEATHER CONDITIONS ARE NOT AVAILABLE.

MNZ060>063-068>070-160400-
   Twin Cities Metro

CITY           SKY/WX    TMP DP  RH WIND       PRES   REMARKS
TWIN CITIES    CLOUDY    34   9  35 SE7       30.08S WCI  28
ST PAUL        CLOUDY    34  10  37 S6        30.10R WCI  29
CRYSTAL        CLOUDY    36   7  29 S7        30.07R
BLAINE         CLOUDY    36   7  30 CALM      30.08S
EDEN PRAIRIE   CLOUDY    35   9  33 E7        30.06F WCI  29
LAKEVILLE      MOCLDY    30  18  59 SE5       30.07F WCI  25
SOUTH ST PAUL  MOCLDY    38   9  31 S5        30.09S
LAKE ELMO      CLOUDY    32  16  51 SE5       30.10R WCI  27
$$
MNZ001>005-007-008-013>017-022>024-027-028-160400-
   Northwest Minnesota

CITY           SKY/WX    TMP DP  RH WIND       PRES   REMARKS
BEMIDJI        CLOUDY    25   6  45 E5        30.03R WCI  19
HALLOCK        CLOUDY    28  10  47 E9        30.06R WCI  20
ROSEAU         CLEAR     23  12  63 E8        30.08R WCI  14
WARROAD        CLEAR     19  10  68 E6        30.09R WCI  11
THIEF RVR FALL CLOUDY    28  10  47 E8        30.04S WCI  20
CROOKSTON      CLOUDY    30  16  55 E10       30.04S WCI  21
FOSSTON        CLOUDY    25   7  46 E8        30.03R WCI  16
DETROIT LAKES  CLOUDY    32  10  40 E8        30.00S WCI  25
MOORHEAD       CLOUDY    34  18  51 E7        29.99S WCI  28
PARK RAPIDS    CLOUDY    29   5  36 E5        30.01R WCI  24
$$
MNZ006-009>011-018-025>026-160400-
   North Central Minnesota

CITY           SKY/WX    TMP DP  RH WIND       PRES   REMARKS
BAUDETTE       CLEAR     20   6  55 NE3       30.08R
FLAG ISLAND    CLEAR     19   9  63 CALM      30.09R
INTL FALLS     CLEAR     19   9  65 CALM      30.08R
WASKISH        CLEAR     21  12  68 NE5       30.07R WCI  15
BIG FORK       CLEAR     21  10  63 CALM      30.06R
LONGVILLE      MOCLDY    25  10  54 CALM      30.05S
GRAND RAPIDS   CLEAR     23   7  50 CALM      30.05S
CRANE LAKE     CLEAR     12   5  73 CALM      30.11R
ORR            CLEAR     21   1  42 CALM      30.05R
COOK           CLEAR     21   7  53 CALM      30.07R
$$
MNZ012-019>021-037-160400-
   Northeast Minnesota

CITY           SKY/WX    TMP DP  RH WIND       PRES   REMARKS
DULUTH         CLEAR     26   5  40 S3        30.06R
ELY            CLEAR     18   3  53 CALM      30.07R
HIBBING        CLEAR     20   9  62 CALM      30.06R
EVELETH        CLEAR     21   9  58 CALM      30.08R
DULUTH HARBOR  CLEAR     30   3  31 CALM      30.12R
TWO HARBORS    CLEAR     23   7  50 CALM      30.07R
SILVER BAY     CLEAR     19  12  73 CALM      30.07S
GRAND MARAIS     N/A     23  12  62 NW5       30.11R WCI  17
G MARAIS ARPRT CLEAR     16   1  53 CALM      30.05R
$$
MNZ029>031-032-039>041-046>048-054>057-064-160400-
   West Central Minnesota

CITY           SKY/WX    TMP DP  RH WIND       PRES   REMARKS
FERGUS FALLS   CLOUDY    30  10  43 E15       29.95S WCI  19
WHEATON        CLOUDY    36  18  48 E20       29.95S
MORRIS         CLOUDY    34  10  37 E18       29.94F WCI  23
ALEXANDRIA     CLOUDY    31  11  43 E15       29.98S WCI  20
ELBOW LAKE     CLOUDY    32  15  49 E15       29.96S WCI  21
WADENA         CLOUDY    28  10  47 SE8       30.00F WCI  20
GLENWOOD       CLOUDY    30  12  47 E17       29.98F WCI  18
APPLETON       CLOUDY    36  12  38 E16G24    29.93S
BENSON         CLOUDY    34  10  37 SE15G23   29.96S WCI  24
ORTONVILLE     CLOUDY    34  12  40 E20G26    29.91R WCI  22
MADISON        CLOUDY    37  18  44 E21G26    29.91S
WILLMAR        FAIR      34  12  40 E15       29.99F WCI  24
$$
MNZ033>034-036-042>043-049>051-058-059-160400-
   Central Minnesota

CITY           SKY/WX    TMP DP  RH WIND       PRES   REMARKS
ST CLOUD       CLOUDY    33   7  33 E3        30.05S
SAUK CENTRE    CLOUDY    31  12  45 E7        30.01S WCI  24
PAYNESVILLE    CLOUDY    32   8  37 E12       30.02S WCI  23
AITKIN         PTCLDY    27  10  50 CALM      30.05S
PINE RIVER     MOCLDY    28   9  43 SE6       30.08R WCI  22
BRAINERD       CLOUDY    32   5  32 SE6       30.06R WCI  26
STAPLES        CLOUDY    28   7  40 E3        30.03S
LONG PRAIRIE   MOCLDY    30  10  43 E8        30.02S WCI  23
LITTLE FALLS   CLOUDY    32  12  43 CALM      30.05S
LITCHFIELD     MOCLDY    34  14  44 E12       30.02F WCI  25
BUFFALO        CLOUDY    33  13  44 E5        30.06F WCI  28
MAPLE LAKE     CLOUDY    33  15  48 E5        30.06S WCI  28
$$
MNZ037-044-045-052-053-160400-
   East Central Minnesota

CITY           SKY/WX    TMP DP  RH WIND       PRES   REMARKS
PRINCETON      CLOUDY    34   7  32 CALM      30.07F
MORA           CLOUDY    28  12  50 CALM      30.09S
CAMBRIDGE      CLOUDY    30  12  47 CALM      30.07S
RUSH CITY      CLOUDY    29   8  40 CALM      30.09R
MOOSE LAKE     CLEAR     27   9  46 CALM      30.07R
HINCKLEY       FAIR      28  18  64 CALM      30.09R
CLOQUET          N/A     25   3  39 CALM      30.07R
MCGREGOR       PTCLDY    28   9  43 SE3       30.07R
$$
MNZ071>073-080-081-089-090-097-098-160400-
   Southwest Minnesota

CITY           SKY/WX    TMP DP  RH WIND       PRES   REMARKS
MONTEVIDEO     CLOUDY    34  16  47 SE21      29.95S WCI  22
GRANITE FALLS  CLOUDY    35  15  44 E15G22    29.95S WCI  25
CANBY          CLOUDY    35  19  51 E20       29.90S WCI  24
MARSHALL       MOCLDY    37  19  48 SE17      29.90S
REDWOOD FALLS  MOCLDY    36  14  40 E13       29.96S
OLIVIA         CLOUDY    34  14  44 E14G23    29.97F WCI  24
PIPESTONE      PTCLDY    37  25  60 SE14      29.82S
WINDOM         PTCLDY    36  23  60 E13       29.93S
WORTHINGTON    PTCLDY    36  19  51 SE18G25   29.89F
JACKSON        PTCLDY    34  23  64 SE17      29.93F WCI  23
TRACY          PTCLDY    37  23  57 SE13G18   29.91S
SLAYTON        FAIR      35  24  64 SE18      29.88S WCI  24
$$
MNZ065>067-074>077-082>085-091>093-160400-
   South Central Minnesota

CITY           SKY/WX    TMP DP  RH WIND       PRES   REMARKS
MANKATO        CLOUDY    34  16  47 SE14      30.03F WCI  24
NEW ULM        CLOUDY    36  16  44 E13       30.00R
ST JAMES       MOCLDY    36  21  55 E13       29.99S
FAIRMONT       MOCLDY    34  21  60 E16       29.99F WCI  23
GLENCOE        CLOUDY    34  11  38 E9        30.03S WCI  27
FARIBAULT      CLOUDY    36  10  35 E7        30.06F
OWATONNA       MOCLDY    34  19  55 E7        30.05F WCI  28
WASECA         CLOUDY    34  21  60 E10       30.05F WCI  26
ALBERT LEA     CLOUDY    34  19  55 SE7       30.04F WCI  28
$$
MNZ078>079-086>088-094>096-160400-
   Southeast Minnesota

CITY           SKY/WX    TMP DP  RH WIND       PRES   REMARKS
ROCHESTER      MOCLDY    30  20  66 SE5       30.09R WCI  25
RED WING       CLOUDY    36  12  38 S3        30.11R
STANTON        CLOUDY    34  17  49 SE5       30.07F WCI  30
DODGE CENTER   PTCLDY    34  25  69 SE7       30.07S WCI  28
WINONA         PTCLDY    34  19  55 CALM      30.14R
AUSTIN         CLOUDY    30  23  74 SE7       30.06F WCI  23
PRESTON        PTCLDY    31  18  59 CALM      30.10R
$$
ABBREVIATIONS USED IN REMARKS
   TC - TEMPERATURES IN CELSIUS
  WCI - WIND CHILL INDEX
   HX - HEAT INDEX
  VSB - VISIBILITY
$$


USA.gov is the U.S. government's official web portal to all federal, state and local government web resources and services.